User: anonymous   Login
Location: Nairn
(57.5833°N, 3.8667°W)
Time: 12:10:25
(UTC+00:00)
Language:

Helios 1B rocket - Orbit

View from above orbital plane
View from above orbital plane
View from above satellite
View from above satellite

Ground track
Ground track

The orbit data is extracted from the following two-line orbital elements,

1 25979U 99064C   20296.39156980 +.00000556 +00000-0 +55106-4 0  9997
2 25979 098.1451 219.5416 0005335 226.0308 134.0472 14.96067682133004
Epoch (UTC): 22 October 2020 09:23:51
Eccentricity: 0.0005335
inclination: 98.1451°
perigee height: 575 km
apogee height: 583 km
right ascension of ascending node: 219.5416°
argument of perigee: 226.0308°
revolutions per day: 14.96067682
mean anomaly at epoch: 134.0472°
orbit number at epoch: 13300

The dashed part of the orbit path shows where the satellite is in the earth's shadow,  

DLR